Location: Kouchibouguac National Park
(46.8081°N, 64.9088°W)
Time: 14:49:02
(UTC-03:00)

Daily predictions for brighter satellites

Satellite Brightness Start Highest point End
(mag) Time Altitude Azimuth Time Altitude Azimuth Time Altitude Azimuth
Cosmos 2279 Rocket 4.2 20:46:10 10° SSE 20:52:10 52° E 20:58:11 10° NNE
CENTAUR R/B 4.2 20:48:04 10° WSW 20:54:01 40° NW 21:00:48 10° NE
GENESIS II 4.3 20:51:15 10° SSW 20:55:17 69° SE 20:59:20 10° NE
SL-16 R/B 2.2 20:54:27 10° SSW 21:00:08 82° ESE 21:05:50 10° NNE
ERS-1 Rocket 3.7 21:02:46 10° SE 21:07:19 36° ENE 21:11:52 10° N
SeaSat 1 4.1 21:06:06 10° E 21:09:46 22° NE 21:13:28 10° N
CZ-2D R/B 4.5 21:08:55 10° S 21:12:39 44° W 21:16:24 10° NNW
Resurs 01 Rocket 3.0 21:09:50 10° SSW 21:14:01 40° W 21:18:14 10° NNW
Cosmos 1844 Rocket 3.6 21:11:15 10° NNW 21:16:18 34° NE 21:21:03 11° ESE
Cosmos 2278 Rocket 4.0 21:12:59 10° N 21:16:56 19° NE 21:20:52 10° E
USA 229 DEB 4.1 21:11:24 10° S 21:17:36 39° ESE 21:23:55 10° NE
USA 229 4.1 21:11:31 10° S 21:17:43 39° ESE 21:24:01 10° NE
CZ-4C R/B 3.9 21:13:15 10° NNW 21:19:15 33° NNE 21:25:57 10° E
Cosmos 2333 Rocket 4.1 21:18:27 10° ESE 21:19:28 10° E 21:20:29 10° E
Cosmos 1908 Rocket 3.7 21:17:00 10° N 21:21:16 53° ENE 21:25:31 10° SSE
SPOT 5 4.0 21:20:44 12° ESE 21:24:19 26° ENE 21:28:05 10° N
YAOGAN 6 2.9 21:23:45 11° SSE 21:27:07 50° ENE 21:30:37 10° N
Sich 1 Rocket 3.7 21:22:55 10° N 21:27:23 63° ENE 21:31:52 10° SSE
Cosmos 1933 3.4 21:27:33 10° S 21:31:35 83° W 21:35:38 10° N
Cosmos 1992 Rocket 4.3 21:28:37 10° SSW 21:33:50 72° WNW 21:39:07 10° NNE
Meteor 2-10 Rocket 3.8 21:29:18 10° S 21:35:04 68° E 21:40:46 10° NNE
Cosmos 1782 Rocket 4.0 21:31:38 10° N 21:35:52 45° ENE 21:39:12 15° SE
Cosmos 1777 Rocket 4.3 21:32:19 10° NNW 21:37:31 53° ENE 21:41:33 16° SE
Cosmos 1733 Rocket 4.2 21:33:43 10° NNW 21:38:00 46° W 21:42:14 10° SSW
USA 267 3.5 21:33:43 10° NE 21:40:16 74° NNW 21:46:48 10° WSW
Cosmos 2219 Rocket 3.4 21:38:26 15° SE 21:40:47 20° E 21:44:45 10° NE
Helios 1A 4.3 21:41:16 10° S 21:45:15 40° W 21:49:18 10° NNW
Okean 1-7 3.5 21:44:11 14° SSE 21:47:34 41° E 21:51:43 10° NNE
Okean 2 Rocket 3.5 21:46:21 10° N 21:50:45 48° ENE 21:53:31 21° SE
Meteor 1-26 Rocket 4.2 21:47:28 10° S 21:53:11 80° E 21:59:02 10° NNE
Cosmos 1782 3.7 21:54:45 24° SE 21:56:08 29° E 21:59:39 10° NNE
Cosmos 2263 Rocket 3.7 21:53:45 10° NW 21:58:35 31° WSW 22:03:25 10° SSW
Cosmos 2084 4.2 21:55:06 10° NNW 21:58:38 35° NE 22:00:42 21° E
Cosmos 1633 3.9 22:01:12 10° NNE 22:04:15 24° ENE 22:04:58 22° E
Cosmos 968 Rocket 4.3 21:59:16 10° NNW 22:04:16 49° WSW 22:09:04 11° S
Terra 3.3 22:06:09 18° E 22:08:03 24° ENE 22:11:49 10° N
Cosmos 1939 Rocket 4.5 22:04:28 10° SSW 22:08:06 32° W 22:11:43 10° NNW
Cosmos 1346 Rocket 4.4 22:11:04 19° E 22:11:04 19° E 22:13:43 10° NE
Cosmos 1703 Rocket 3.7 22:07:16 10° SSW 22:11:43 77° W 22:16:08 10° N
Cosmos 2237 4.1 22:08:02 10° SSW 22:13:46 78° ESE 22:19:30 10° NNE
Cosmos 2322 Rocket 4.2 22:08:52 10° WSW 22:13:49 31° NW 22:18:50 10° NNE
USA 234 3.6 22:12:08 21° SSE 22:16:33 56° SW 22:23:00 10° WNW
Atlas Centaur 2 4.0 22:12:32 10° SW 22:17:39 22° S 22:19:23 20° SSE
Cosmos 2266 Rocket 4.4 22:14:49 10° NNW 22:21:03 64° W 22:27:05 11° S
Cosmos 2360 Rocket 2.8 22:15:34 10° SW 22:21:08 60° WNW 22:26:47 10° NNE
Abrixas rocket 2.2 22:18:12 10° WNW 22:21:30 74° N 22:22:26 43° E
MetOp-B 4.2 22:17:56 20° S 22:21:42 78° WSW 22:27:05 10° NNW
MOS 1-B Rocket 3.8 22:19:05 24° SSE 22:22:47 81° ENE 22:28:25 10° NNW
COSMOS 2428 2.6 22:17:31 10° SSW 22:23:10 72° ESE 22:28:52 10° NNE
Cosmos 2151 Rocket 3.8 22:20:46 10° N 22:25:08 53° ENE 22:26:34 37° SE
Meteor 1-10 Rocket 4.4 22:23:47 22° S 22:27:34 61° E 22:33:19 10° NNE
Meteor 1-11 Rocket 4.1 22:23:41 10° N 22:29:00 46° ENE 22:31:08 31° ESE
H-2A R/B 2.0 22:28:32 33° SE 22:30:37 63° ENE 22:35:30 10° N
ATLAS 5 CENTAUR R/B 4.0 22:25:44 10° WNW 22:30:46 27° WSW 22:35:40 12° SSW
Cosmos 1844 3.6 22:26:10 10° NNW 22:31:54 88° ENE 22:34:34 33° SSE
Cosmos 1980 4.4 22:31:47 31° ESE 22:32:34 32° ESE 22:37:33 10° NE
NOSS 0 Rocket 4.4 22:32:23 31° SE 22:34:21 39° ESE 22:39:59 10° NE
IGS 5A 4.4 22:34:20 31° E 22:35:02 33° ENE 22:38:47 10° N
Cosmos 2221 Rocket 4.1 22:32:02 11° SSW 22:36:10 57° WNW 22:40:34 10° N
SL-16 R/B 4.1 22:40:26 14° E 22:40:26 14° E 22:42:14 10° ENE
Okean 1 Rocket 4.1 22:36:11 10° N 22:40:09 30° ENE 22:40:42 30° E
ARGOS 3.3 22:37:29 26° S 22:40:33 70° WSW 22:45:57 10° NNW
Cosmos 1606 2.5 22:42:02 55° S 22:42:48 82° E 22:46:37 10° N
Cosmos 1674 Rocket 4.1 22:43:31 38° E 22:43:35 38° E 22:47:36 10° NNE
Cosmos 1570 Rocket 4.0 22:42:28 32° S 22:44:46 62° ESE 22:50:00 10° NNE
ERS-1 Rocket 4.4 22:42:01 12° SSW 22:46:06 32° W 22:50:37 10° NNW
SeaSat 1 2.5 22:44:57 39° SSE 22:46:50 76° WSW 22:51:48 10° NNW
Cosmos 1937 Rocket 4.3 22:45:14 10° N 22:50:08 37° ENE 22:51:37 31° E
H-2A R/B 2.1 22:53:54 55° ESE 22:54:36 66° ENE 22:58:57 10° N
Cosmos 2208 Rocket 3.9 22:53:06 36° S 22:55:18 69° ESE 23:00:35 10° NNE
SL-08 R/B 4.4 22:50:57 10° N 22:57:08 78° E 22:59:30 40° SSE
Cosmos 1536 3.4 22:53:45 10° N 22:57:34 42° ENE 22:57:34 42° ENE
Cosmos 2237 Rocket 2.4 22:58:35 44° SE 22:59:34 49° ESE 23:05:02 10° NE
Cosmos 1553 Rocket 3.9 22:57:07 36° SSE 22:59:46 70° E 23:05:56 10° NNE
Cosmos 1844 Rocket 3.4 22:55:03 10° NW 23:00:18 44° WSW 23:02:44 28° SSW
Cosmos 2333 4.5 22:55:19 10° SW 23:01:01 70° WNW 23:06:49 10° NNE
NOSS 3-1 (C) 3.3 22:55:57 10° SSW 23:01:45 76° SE 23:08:20 10° NE
Cosmos 2278 Rocket 2.1 22:56:12 10° NNW 23:01:55 85° ENE 23:03:38 47° SSE
SPOT 5 3.8 22:59:59 24° SSW 23:02:15 39° W 23:06:34 10° NNW
Cosmos 2333 Rocket 2.1 23:00:04 34° S 23:02:37 69° ESE 23:08:23 10° NNE
SL-08 RB Rocket 4.4 23:01:17 32° SSW 23:02:59 48° W 23:07:24 10° NNW
Meteor 2-6 Rocket 4.4 23:01:35 24° SSW 23:05:18 78° WNW 23:11:17 10° N
Cosmos 2150 Rocket 4.4 23:02:00 10° NNW 23:07:21 54° ENE 23:08:38 44° ESE
USA 229 DEB 4.4 23:01:39 10° WSW 23:08:22 56° NW 23:15:16 10° NE
USA 229 4.4 23:01:45 10° WSW 23:08:29 56° NW 23:15:22 10° NE
CZ-4C R/B 2.8 23:01:34 10° NW 23:08:38 88° SW 23:11:50 40° SE
Iridium 4 Rocket 2.9 23:05:57 10° N 23:10:05 66° E 23:10:05 66° E
CZ-4C R/B 4.3 23:11:51 32° NE 23:11:51 32° NE 23:14:37 10° N
Cosmos 1300 Rocket 3.4 23:10:47 10° N 23:15:10 89° W 23:15:29 77° S
Cosmos 1898 Rocket 3.4 23:09:57 10° NNW 23:15:10 79° ENE 23:16:06 60° SE
ASTEX 1 3.4 23:15:28 54° S 23:16:37 80° W 23:21:37 10° N
NOSS 3-1 (A) 3.3 23:15:18 30° SSW 23:18:25 74° SE 23:25:00 10° NE
SPOT 1/Viking Rocket 4.4 23:16:34 30° SSW 23:18:38 43° W 23:23:37 10° NNW
ATLAS 2AS CENTAUR R/B 4.0 23:20:47 26° ESE 23:20:47 26° ESE 23:26:35 10° NE
Cosmos 2219 Rocket 2.4 23:20:01 18° SW 23:24:09 68° WNW 23:29:48 10° NNE
Meteor 1-5 Rocket 4.2 23:20:22 10° N 23:26:03 74° ENE 23:27:11 57° SE
Cosmos 1386 Rocket 4.4 23:22:31 10° N 23:28:58 87° E 23:30:42 52° SSE
CRYOSAT 2 4.3 23:29:05 66° SSW 23:29:44 80° W 23:34:38 10° N
Landsat 7 4.5 23:29:26 40° SW 23:30:24 46° W 23:35:00 10° NNW
S3M 4.0 23:28:27 38° SSW 23:31:00 75° W 23:37:15 10° N
Cosmos 1709 Rocket 4.1 23:29:15 10° N 23:35:37 63° ENE 23:36:56 52° SE
Cosmos 1633 4.4 23:36:09 10° NW 23:39:10 24° W 23:39:16 24° W
CZ-2C R/B 4.4 23:39:37 23° ENE 23:40:09 23° ENE 23:44:03 10° N
Meteor 2-11 Rocket 4.4 23:38:50 45° SSW 23:40:48 78° W 23:46:55 10° N
Cosmos 1814 Rocket 4.1 23:41:45 55° E 23:41:45 55° E 23:46:19 10° NNE
Cosmos 1378 Rocket 3.6 23:42:17 74° NNE 23:42:17 74° NNE 23:46:22 10° N
ATLAS 3B R/B 3.4 23:38:24 10° NNW 23:45:03 46° NE 23:47:54 30° E
Terra 2.4 23:45:02 45° WSW 23:45:31 47° W 23:50:08 10° NNW
Cosmos 1346 Rocket 4.0 23:46:34 34° W 23:46:59 35° WNW 23:50:41 10° N
Meteor 1-27 Rocket 4.3 23:46:37 32° SW 23:48:56 51° WNW 23:54:23 10° N
Cosmos 468 Rocket 3.9 23:50:38 73° SSW 23:51:09 87° WNW 23:56:32 10° NNE
Cosmos 1544 Rocket 4.5 23:47:40 10° N 23:51:15 40° NE 23:51:15 40° NE
deb Chang Zheng 4 4.2 23:49:40 10° N 23:53:56 49° WNW 23:54:23 47° W
